Year,Month,Day,Hour,Minute,Value (Times are PST for windgust in km/hr)
2012,01,27,00,00,9.60
2012,01,27,00,01,9.60
2012,01,27,00,02,9.60
2012,01,27,00,03,6.40
2012,01,27,00,04,8.10
2012,01,27,00,05,8.10
2012,01,27,00,06,8.10
2012,01,27,00,07,8.10
2012,01,27,00,08,8.10
2012,01,27,00,09,9.60
2012,01,27,00,10,6.40
2012,01,27,00,11,4.80
2012,01,27,00,12,6.40
2012,01,27,00,13,3.20
2012,01,27,00,14,4.80
2012,01,27,00,15,4.80
2012,01,27,00,18,1.60
2012,01,27,00,20,1.60
2012,01,27,00,22,1.60
2012,01,27,00,33,4.80
2012,01,27,00,34,6.40
2012,01,27,00,35,1.60
2012,01,27,00,39,1.60
2012,01,27,00,41,3.20
2012,01,27,00,42,3.20
2012,01,27,00,43,4.80
2012,01,27,00,44,3.20
2012,01,27,00,45,1.60
2012,01,27,00,46,1.60
2012,01,27,00,47,1.60
2012,01,27,00,48,3.20
2012,01,27,00,49,8.10
2012,01,27,00,50,4.80
2012,01,27,00,51,3.20
2012,01,27,00,52,3.20
2012,01,27,00,53,1.60
2012,01,27,00,54,6.40
2012,01,27,00,55,4.80
2012,01,27,00,56,4.80
2012,01,27,00,57,6.40
2012,01,27,00,58,8.10
2012,01,27,00,59,11.30
2012,01,27,01,00,8.10
2012,01,27,01,01,6.40
2012,01,27,01,02,8.10
2012,01,27,01,03,8.10
2012,01,27,01,04,8.10
2012,01,27,01,05,9.60
2012,01,27,01,06,8.10
2012,01,27,01,07,8.10
2012,01,27,01,08,8.10
2012,01,27,01,09,4.80
2012,01,27,01,10,6.40
2012,01,27,01,11,6.40
2012,01,27,01,12,6.40
2012,01,27,01,13,6.40
2012,01,27,01,14,4.80
2012,01,27,01,15,6.40
2012,01,27,01,16,3.20
2012,01,27,01,17,4.80
2012,01,27,01,18,3.20
2012,01,27,01,19,4.80
2012,01,27,01,20,4.80
2012,01,27,01,21,4.80
2012,01,27,01,22,4.80
2012,01,27,01,23,6.40
2012,01,27,01,24,8.10
2012,01,27,01,25,4.80
2012,01,27,01,26,1.60
2012,01,27,01,27,1.60
2012,01,27,01,28,4.80
2012,01,27,01,29,1.60
2012,01,27,01,30,3.20
2012,01,27,01,31,4.80
2012,01,27,01,32,3.20
2012,01,27,01,33,4.80
2012,01,27,01,34,1.60
2012,01,27,01,35,4.80
2012,01,27,01,36,6.40
2012,01,27,01,37,6.40
2012,01,27,01,38,6.40
2012,01,27,01,39,4.80
2012,01,27,01,40,4.80
2012,01,27,01,41,6.40
2012,01,27,01,42,4.80
2012,01,27,01,43,4.80
2012,01,27,01,44,4.80
2012,01,27,01,45,4.80
2012,01,27,01,46,6.40
2012,01,27,01,47,8.10
2012,01,27,01,48,8.10
2012,01,27,01,49,6.40
2012,01,27,01,50,6.40
2012,01,27,01,51,6.40
2012,01,27,01,52,9.60
2012,01,27,01,53,11.30
2012,01,27,01,54,6.40
2012,01,27,01,55,8.10
2012,01,27,01,56,8.10
2012,01,27,01,57,8.10
2012,01,27,01,58,6.40
2012,01,27,01,59,6.40
2012,01,27,02,00,4.80
2012,01,27,02,01,8.10
2012,01,27,02,02,6.40
2012,01,27,02,03,4.80
2012,01,27,02,04,4.80
2012,01,27,02,05,6.40
2012,01,27,02,06,4.80
2012,01,27,02,07,9.60
2012,01,27,02,08,8.10
2012,01,27,02,09,8.10
2012,01,27,02,10,4.80
2012,01,27,02,11,6.40
2012,01,27,02,12,4.80
2012,01,27,02,13,4.80
2012,01,27,02,14,4.80
2012,01,27,02,15,4.80
2012,01,27,02,16,6.40
2012,01,27,02,17,4.80
2012,01,27,02,18,4.80
2012,01,27,02,19,4.80
2012,01,27,02,20,4.80
2012,01,27,02,21,8.10
2012,01,27,02,22,4.80
2012,01,27,02,23,6.40
2012,01,27,02,24,4.80
2012,01,27,02,25,3.20
2012,01,27,02,26,3.20
2012,01,27,02,27,3.20
2012,01,27,02,28,1.60
2012,01,27,02,29,4.80
2012,01,27,02,30,1.60
2012,01,27,02,31,3.20
2012,01,27,02,32,4.80
2012,01,27,02,33,6.40
2012,01,27,02,34,6.40
2012,01,27,02,35,6.40
2012,01,27,02,36,6.40
2012,01,27,02,37,3.20
2012,01,27,02,38,6.40
2012,01,27,02,39,4.80
2012,01,27,02,40,6.40
2012,01,27,02,41,4.80
2012,01,27,02,42,4.80
2012,01,27,02,43,4.80
2012,01,27,02,44,3.20
2012,01,27,02,45,6.40
2012,01,27,02,46,6.40
2012,01,27,02,47,4.80
2012,01,27,02,48,6.40
2012,01,27,02,49,4.80
2012,01,27,02,50,6.40
2012,01,27,02,51,4.80
2012,01,27,02,52,4.80
2012,01,27,02,53,6.40
2012,01,27,02,55,4.80
2012,01,27,02,56,6.40
2012,01,27,02,57,6.40
2012,01,27,02,58,8.10
2012,01,27,02,59,6.40
2012,01,27,03,00,6.40
2012,01,27,03,01,6.40
2012,01,27,03,02,8.10
2012,01,27,03,03,6.40
2012,01,27,03,06,6.40
2012,01,27,03,07,6.40
2012,01,27,03,08,4.80
2012,01,27,03,09,6.40
2012,01,27,03,10,8.10
2012,01,27,03,11,4.80
2012,01,27,03,12,4.80
2012,01,27,03,13,4.80
2012,01,27,03,14,4.80
2012,01,27,03,15,6.40
2012,01,27,03,16,8.10
2012,01,27,03,17,6.40
2012,01,27,03,18,4.80
2012,01,27,03,19,4.80
2012,01,27,03,20,6.40
2012,01,27,03,21,4.80
2012,01,27,03,22,4.80
2012,01,27,03,23,6.40
2012,01,27,03,24,4.80
2012,01,27,03,25,4.80
2012,01,27,03,26,3.20
2012,01,27,03,27,1.60
2012,01,27,03,28,3.20
2012,01,27,03,29,1.60
2012,01,27,03,42,4.80
2012,01,27,03,45,1.60
2012,01,27,03,59,4.80
2012,01,27,04,00,4.80
2012,01,27,04,19,1.60
2012,01,27,04,59,3.20
2012,01,27,05,02,3.20
2012,01,27,05,03,3.20
2012,01,27,05,05,3.20
2012,01,27,05,06,4.80
2012,01,27,05,08,3.20
2012,01,27,05,11,1.60
2012,01,27,06,34,1.60
2012,01,27,07,08,3.20
2012,01,27,07,21,1.60
2012,01,27,07,26,3.20
2012,01,27,07,27,3.20
2012,01,27,07,28,4.80
2012,01,27,07,29,3.20
2012,01,27,07,31,1.60
2012,01,27,07,32,1.60
2012,01,27,07,34,1.60
2012,01,27,07,38,1.60
2012,01,27,07,40,1.60
2012,01,27,07,41,1.60
2012,01,27,07,42,1.60
2012,01,27,07,43,1.60
2012,01,27,07,47,3.20
2012,01,27,07,48,4.80
2012,01,27,07,49,3.20
2012,01,27,07,50,3.20
2012,01,27,07,51,1.60
2012,01,27,07,53,3.20
2012,01,27,07,54,3.20
2012,01,27,07,55,3.20
2012,01,27,07,56,4.80
2012,01,27,07,57,6.40
2012,01,27,07,58,4.80
2012,01,27,07,59,4.80
2012,01,27,08,00,3.20
2012,01,27,08,01,3.20
2012,01,27,08,02,3.20
2012,01,27,08,03,3.20
2012,01,27,08,04,1.60
2012,01,27,08,05,3.20
2012,01,27,08,07,1.60
2012,01,27,08,08,1.60
2012,01,27,08,09,1.60
2012,01,27,08,10,4.80
2012,01,27,08,11,3.20
2012,01,27,08,12,3.20
2012,01,27,08,13,4.80
2012,01,27,08,14,3.20
2012,01,27,08,15,1.60
2012,01,27,08,20,1.60
2012,01,27,08,26,4.80
2012,01,27,08,27,6.40
2012,01,27,08,28,4.80
2012,01,27,08,29,3.20
2012,01,27,08,30,4.80
2012,01,27,08,31,3.20
2012,01,27,08,32,3.20
2012,01,27,08,33,3.20
2012,01,27,08,34,1.60
2012,01,27,08,35,3.20
2012,01,27,08,36,1.60
2012,01,27,08,48,3.20
2012,01,27,08,49,1.60
2012,01,27,08,50,4.80
2012,01,27,08,51,1.60
2012,01,27,09,01,1.60
2012,01,27,09,02,4.80
2012,01,27,09,03,1.60
2012,01,27,09,04,4.80
2012,01,27,09,05,3.20
2012,01,27,09,06,3.20
2012,01,27,09,07,6.40
2012,01,27,09,08,3.20
2012,01,27,09,09,1.60
2012,01,27,09,10,1.60
2012,01,27,09,12,4.80
2012,01,27,09,13,4.80
2012,01,27,09,14,4.80
2012,01,27,09,15,4.80
2012,01,27,09,16,4.80
2012,01,27,09,17,4.80
2012,01,27,09,18,4.80
2012,01,27,09,19,4.80
2012,01,27,09,20,3.20
2012,01,27,09,21,4.80
2012,01,27,09,22,3.20
2012,01,27,09,23,4.80
2012,01,27,09,24,4.80
2012,01,27,09,25,4.80
2012,01,27,09,26,4.80
2012,01,27,09,27,3.20
2012,01,27,09,28,4.80
2012,01,27,09,29,3.20
2012,01,27,09,30,3.20
2012,01,27,09,31,3.20
2012,01,27,09,32,3.20
2012,01,27,09,33,1.60
2012,01,27,09,34,1.60
2012,01,27,09,46,1.60
2012,01,27,09,47,4.80
2012,01,27,09,48,1.60
2012,01,27,09,54,1.60
2012,01,27,09,55,3.20
2012,01,27,09,56,3.20
2012,01,27,09,57,4.80
2012,01,27,09,58,6.40
2012,01,27,09,59,11.30
2012,01,27,10,00,4.80
2012,01,27,10,01,3.20
2012,01,27,10,02,6.40
2012,01,27,10,03,6.40
2012,01,27,10,04,14.50
2012,01,27,10,05,8.10
2012,01,27,10,06,19.30
2012,01,27,10,07,17.70
2012,01,27,10,08,11.30
2012,01,27,10,09,8.10
2012,01,27,10,10,9.60
2012,01,27,10,11,12.90
2012,01,27,10,12,8.10
2012,01,27,10,13,6.40
2012,01,27,10,14,9.60
2012,01,27,10,15,9.60
2012,01,27,10,16,8.10
2012,01,27,10,17,6.40
2012,01,27,10,18,9.60
2012,01,27,10,19,8.10
2012,01,27,10,20,6.40
2012,01,27,10,21,6.40
2012,01,27,10,22,14.50
2012,01,27,10,23,6.40
2012,01,27,10,24,9.60
2012,01,27,10,25,9.60
2012,01,27,10,26,11.30
2012,01,27,10,27,9.60
2012,01,27,10,28,4.80
2012,01,27,10,29,11.30
2012,01,27,10,30,11.30
2012,01,27,10,31,8.10
2012,01,27,10,32,9.60
2012,01,27,10,33,8.10
2012,01,27,10,34,6.40
2012,01,27,10,35,8.10
2012,01,27,10,36,4.80
2012,01,27,10,37,6.40
2012,01,27,10,38,6.40
2012,01,27,10,39,6.40
2012,01,27,10,40,8.10
2012,01,27,10,41,17.70
2012,01,27,10,42,14.50
2012,01,27,10,43,4.80
2012,01,27,10,44,8.10
2012,01,27,10,45,14.50
2012,01,27,10,46,8.10
2012,01,27,10,47,12.90
2012,01,27,10,48,11.30
2012,01,27,10,49,8.10
2012,01,27,10,50,11.30
2012,01,27,10,51,8.10
2012,01,27,10,52,11.30
2012,01,27,10,53,14.50
2012,01,27,10,54,9.60
2012,01,27,10,55,11.30
2012,01,27,10,56,12.90
2012,01,27,10,57,8.10
2012,01,27,10,58,16.10
2012,01,27,10,59,17.70
2012,01,27,11,00,14.50
2012,01,27,11,01,16.10
2012,01,27,11,02,11.30
2012,01,27,11,03,9.60
2012,01,27,11,04,9.60
2012,01,27,11,05,8.10
2012,01,27,11,06,8.10
2012,01,27,11,07,6.40
2012,01,27,11,08,8.10
2012,01,27,11,09,16.10
2012,01,27,11,10,11.30
2012,01,27,11,11,8.10
2012,01,27,11,12,9.60
2012,01,27,11,13,9.60
2012,01,27,11,14,8.10
2012,01,27,11,15,8.10
2012,01,27,11,16,9.60
2012,01,27,11,17,9.60
2012,01,27,11,18,9.60
2012,01,27,11,19,11.30
2012,01,27,11,20,8.10
2012,01,27,11,21,8.10
2012,01,27,11,22,8.10
2012,01,27,11,23,11.30
2012,01,27,11,24,16.10
2012,01,27,11,25,17.70
2012,01,27,11,26,11.30
2012,01,27,11,27,17.70
2012,01,27,11,28,17.70
2012,01,27,11,29,16.10
2012,01,27,11,30,20.90
2012,01,27,11,31,22.50
2012,01,27,11,32,14.50
2012,01,27,11,33,11.30
2012,01,27,11,34,9.60
2012,01,27,11,35,8.10
2012,01,27,11,36,9.60
2012,01,27,11,37,16.10
2012,01,27,11,38,12.90
2012,01,27,11,39,11.30
2012,01,27,11,40,8.10
2012,01,27,11,41,9.60
2012,01,27,11,42,9.60
2012,01,27,11,43,6.40
2012,01,27,11,44,6.40
2012,01,27,11,45,6.40
2012,01,27,11,46,9.60
2012,01,27,11,47,11.30
2012,01,27,11,48,9.60
2012,01,27,11,49,6.40
2012,01,27,11,50,11.30
2012,01,27,11,51,9.60
2012,01,27,11,52,9.60
2012,01,27,11,53,9.60
2012,01,27,11,54,16.10
2012,01,27,11,55,12.90
2012,01,27,11,56,11.30
2012,01,27,11,57,9.60
2012,01,27,11,58,6.40
2012,01,27,11,59,16.10
2012,01,27,12,00,16.10
2012,01,27,12,01,16.10
2012,01,27,12,02,11.30
2012,01,27,12,03,14.50
2012,01,27,12,04,19.30
2012,01,27,12,05,16.10
2012,01,27,12,06,14.50
2012,01,27,12,07,11.30
2012,01,27,12,08,11.30
2012,01,27,12,09,14.50
2012,01,27,12,10,11.30
2012,01,27,12,11,16.10
2012,01,27,12,12,16.10
2012,01,27,12,13,9.60
2012,01,27,12,14,11.30
2012,01,27,12,15,9.60
2012,01,27,12,16,16.10
2012,01,27,12,17,17.70
2012,01,27,12,18,17.70
2012,01,27,12,19,19.30
2012,01,27,12,20,24.20
2012,01,27,12,21,19.30
2012,01,27,12,22,19.30
2012,01,27,12,23,17.70
2012,01,27,12,24,11.30
2012,01,27,12,25,16.10
2012,01,27,12,26,14.50
2012,01,27,12,27,14.50
2012,01,27,12,28,12.90
2012,01,27,12,29,16.10
2012,01,27,12,30,25.70
2012,01,27,12,31,14.50
2012,01,27,12,32,19.30
2012,01,27,12,33,22.50
2012,01,27,12,34,16.10
2012,01,27,12,35,16.10
2012,01,27,12,36,17.70
2012,01,27,12,37,16.10
2012,01,27,12,38,16.10
2012,01,27,12,39,16.10
2012,01,27,12,40,19.30
2012,01,27,12,41,20.90
2012,01,27,12,42,22.50
2012,01,27,12,43,22.50
2012,01,27,12,44,22.50
2012,01,27,12,45,17.70
2012,01,27,12,46,17.70
2012,01,27,12,47,17.70
2012,01,27,12,48,12.90
2012,01,27,12,49,16.10
2012,01,27,12,50,17.70
2012,01,27,12,51,19.30
2012,01,27,12,52,16.10
2012,01,27,12,53,17.70
2012,01,27,12,54,19.30
2012,01,27,12,55,22.50
2012,01,27,12,56,17.70
2012,01,27,12,57,19.30
2012,01,27,12,58,14.50
2012,01,27,12,59,17.70
2012,01,27,13,00,22.50
2012,01,27,13,01,12.90
2012,01,27,13,02,14.50
2012,01,27,13,03,22.50
2012,01,27,13,04,22.50
2012,01,27,13,05,22.50
2012,01,27,13,06,14.50
2012,01,27,13,07,19.30
2012,01,27,13,08,12.90
2012,01,27,13,09,20.90
2012,01,27,13,10,24.20
2012,01,27,13,11,25.70
2012,01,27,13,12,19.30
2012,01,27,13,13,17.70
2012,01,27,13,14,24.20
2012,01,27,13,15,14.50
2012,01,27,13,16,11.30
2012,01,27,13,17,11.30
2012,01,27,13,18,16.10
2012,01,27,13,19,16.10
2012,01,27,13,20,16.10
2012,01,27,13,21,19.30
2012,01,27,13,22,20.90
2012,01,27,13,23,19.30
2012,01,27,13,24,16.10
2012,01,27,13,25,19.30
2012,01,27,13,26,14.50
2012,01,27,13,27,16.10
2012,01,27,13,28,19.30
2012,01,27,13,29,16.10
2012,01,27,13,30,17.70
2012,01,27,13,31,16.10
2012,01,27,13,32,20.90
2012,01,27,13,33,12.90
2012,01,27,13,34,6.40
2012,01,27,13,35,9.60
2012,01,27,13,36,8.10
2012,01,27,13,37,8.10
2012,01,27,13,38,6.40
2012,01,27,13,39,17.70
2012,01,27,13,40,16.10
2012,01,27,13,41,14.50
2012,01,27,13,42,8.10
2012,01,27,13,43,11.30
2012,01,27,13,44,16.10
2012,01,27,13,45,17.70
2012,01,27,13,46,8.10
2012,01,27,13,47,6.40
2012,01,27,13,48,11.30
2012,01,27,13,49,14.50
2012,01,27,13,50,8.10
2012,01,27,13,51,8.10
2012,01,27,13,52,6.40
2012,01,27,13,53,8.10
2012,01,27,13,54,9.60
2012,01,27,13,55,14.50
2012,01,27,13,56,14.50
2012,01,27,13,57,9.60
2012,01,27,13,58,11.30
2012,01,27,13,59,12.90
2012,01,27,14,00,11.30
2012,01,27,14,01,14.50
2012,01,27,14,02,14.50
2012,01,27,14,03,9.60
2012,01,27,14,04,9.60
2012,01,27,14,05,14.50
2012,01,27,14,06,12.90
2012,01,27,14,07,12.90
2012,01,27,14,08,11.30
2012,01,27,14,09,8.10
2012,01,27,14,10,8.10
2012,01,27,14,11,17.70
2012,01,27,14,12,14.50
2012,01,27,14,13,9.60
2012,01,27,14,14,8.10
2012,01,27,14,15,9.60
2012,01,27,14,16,11.30
2012,01,27,14,17,17.70
2012,01,27,14,18,12.90
2012,01,27,14,19,6.40
2012,01,27,14,20,6.40
2012,01,27,14,21,9.60
2012,01,27,14,22,9.60
2012,01,27,14,23,9.60
2012,01,27,14,24,9.60
2012,01,27,14,25,9.60
2012,01,27,14,26,8.10
2012,01,27,14,27,16.10
2012,01,27,14,28,11.30
2012,01,27,14,29,6.40
2012,01,27,14,30,11.30
2012,01,27,14,31,11.30
2012,01,27,14,32,17.70
2012,01,27,14,33,17.70
2012,01,27,14,34,16.10
2012,01,27,14,35,14.50
2012,01,27,14,36,9.60
2012,01,27,14,37,4.80
2012,01,27,14,38,4.80
2012,01,27,14,39,17.70
2012,01,27,14,40,14.50
2012,01,27,14,41,19.30
2012,01,27,14,42,17.70
2012,01,27,14,43,14.50
2012,01,27,14,44,16.10
2012,01,27,14,45,14.50
2012,01,27,14,46,9.60
2012,01,27,14,47,11.30
2012,01,27,14,48,9.60
2012,01,27,14,49,6.40
2012,01,27,14,50,4.80
2012,01,27,14,51,8.10
2012,01,27,14,52,8.10
2012,01,27,14,53,9.60
2012,01,27,14,54,9.60
2012,01,27,14,55,8.10
2012,01,27,14,56,6.40
2012,01,27,14,57,17.70
2012,01,27,14,58,9.60
2012,01,27,14,59,14.50
2012,01,27,15,00,19.30
2012,01,27,15,01,22.50
2012,01,27,15,02,20.90
2012,01,27,15,03,14.50
2012,01,27,15,04,17.70
2012,01,27,15,05,19.30
2012,01,27,15,06,9.60
2012,01,27,15,07,16.10
2012,01,27,15,08,16.10
2012,01,27,15,09,8.10
2012,01,27,15,10,9.60
2012,01,27,15,11,17.70
2012,01,27,15,12,11.30
2012,01,27,15,13,11.30
2012,01,27,15,14,16.10
2012,01,27,15,15,11.30
2012,01,27,15,16,14.50
2012,01,27,15,17,17.70
2012,01,27,15,18,16.10
2012,01,27,15,19,17.70
2012,01,27,15,20,14.50
2012,01,27,15,21,16.10
2012,01,27,15,22,16.10
2012,01,27,15,23,9.60
2012,01,27,15,24,16.10
2012,01,27,15,25,11.30
2012,01,27,15,26,17.70
2012,01,27,15,27,17.70
2012,01,27,15,28,17.70
2012,01,27,15,29,16.10
2012,01,27,15,30,11.30
2012,01,27,15,31,6.40
2012,01,27,15,32,9.60
2012,01,27,15,33,14.50
2012,01,27,15,34,11.30
2012,01,27,15,35,8.10
2012,01,27,15,36,12.90
2012,01,27,15,37,16.10
2012,01,27,15,38,11.30
2012,01,27,15,39,12.90
2012,01,27,15,40,16.10
2012,01,27,15,41,9.60
2012,01,27,15,42,9.60
2012,01,27,15,43,8.10
2012,01,27,15,44,6.40
2012,01,27,15,45,4.80
2012,01,27,15,46,6.40
2012,01,27,15,47,8.10
2012,01,27,15,48,6.40
2012,01,27,15,49,9.60
2012,01,27,15,50,9.60
2012,01,27,15,51,8.10
2012,01,27,15,52,8.10
2012,01,27,15,53,8.10
2012,01,27,15,54,8.10
2012,01,27,15,55,8.10
2012,01,27,15,56,11.30
2012,01,27,15,57,9.60
2012,01,27,15,58,9.60
2012,01,27,15,59,6.40
2012,01,27,16,00,9.60
2012,01,27,16,01,8.10
2012,01,27,16,02,6.40
2012,01,27,16,03,6.40
2012,01,27,16,04,8.10
2012,01,27,16,05,9.60
2012,01,27,16,06,8.10
2012,01,27,16,07,6.40
2012,01,27,16,08,4.80
2012,01,27,16,09,4.80
2012,01,27,16,10,4.80
2012,01,27,16,11,6.40
2012,01,27,16,12,4.80
2012,01,27,16,13,1.60
2012,01,27,16,15,4.80
2012,01,27,16,16,4.80
2012,01,27,16,17,3.20
2012,01,27,16,18,4.80
2012,01,27,16,19,4.80
2012,01,27,16,20,4.80
2012,01,27,16,21,8.10
2012,01,27,16,22,4.80
2012,01,27,16,23,3.20
2012,01,27,16,24,3.20
2012,01,27,16,25,4.80
2012,01,27,16,26,3.20
2012,01,27,16,27,3.20
2012,01,27,16,28,1.60
2012,01,27,16,42,1.60
2012,01,27,16,43,4.80
2012,01,27,16,44,1.60
2012,01,27,16,45,1.60
2012,01,27,16,46,4.80
2012,01,27,16,47,4.80
2012,01,27,16,48,4.80
2012,01,27,16,49,4.80
2012,01,27,16,51,1.60
2012,01,27,16,52,1.60
2012,01,27,16,53,1.60
2012,01,27,16,54,3.20
2012,01,27,16,55,1.60
2012,01,27,16,56,1.60
2012,01,27,16,57,1.60
2012,01,27,17,16,1.60
2012,01,27,17,17,3.20
2012,01,27,17,18,4.80
2012,01,27,17,19,4.80
2012,01,27,17,20,4.80
2012,01,27,17,21,3.20
2012,01,27,17,22,4.80
2012,01,27,17,23,4.80
2012,01,27,17,25,1.60
2012,01,27,17,26,3.20
2012,01,27,17,27,4.80
2012,01,27,17,28,6.40
2012,01,27,17,29,4.80
2012,01,27,17,30,4.80
2012,01,27,17,31,3.20
2012,01,27,17,33,4.80
2012,01,27,17,34,4.80
2012,01,27,17,35,4.80
2012,01,27,17,36,3.20
2012,01,27,17,37,3.20
2012,01,27,17,38,3.20
2012,01,27,17,39,3.20
2012,01,27,17,40,4.80
2012,01,27,17,41,4.80
2012,01,27,17,42,3.20
2012,01,27,18,21,1.60
2012,01,27,18,22,1.60
2012,01,27,18,23,1.60
2012,01,27,18,25,1.60
2012,01,27,18,30,1.60
2012,01,27,18,31,4.80
2012,01,27,18,32,4.80
2012,01,27,18,33,4.80
2012,01,27,18,34,3.20
2012,01,27,18,35,4.80
2012,01,27,18,36,3.20
2012,01,27,18,37,3.20
2012,01,27,18,38,3.20
2012,01,27,18,39,1.60
2012,01,27,18,40,3.20
2012,01,27,18,43,3.20
2012,01,27,18,44,4.80
2012,01,27,18,45,3.20
2012,01,27,19,28,3.20
2012,01,27,19,29,3.20
2012,01,27,19,30,3.20
2012,01,27,19,31,4.80
2012,01,27,19,32,3.20
2012,01,27,19,33,1.60
2012,01,27,19,34,4.80
2012,01,27,19,35,3.20
2012,01,27,19,36,3.20
2012,01,27,19,37,1.60
2012,01,27,19,38,3.20
2012,01,27,19,39,4.80
2012,01,27,19,40,6.40
2012,01,27,19,41,4.80
2012,01,27,19,42,4.80
2012,01,27,19,43,1.60
2012,01,27,19,52,1.60
2012,01,27,20,01,3.20
2012,01,27,20,02,3.20
2012,01,27,20,03,3.20
2012,01,27,20,04,3.20
2012,01,27,20,05,3.20
2012,01,27,20,06,4.80
2012,01,27,20,07,3.20
2012,01,27,20,34,1.60
2012,01,27,20,53,1.60
2012,01,27,22,09,1.60
